Regional Weather Roundup
Issued by NWS

Home | Current Version | Previous Version | Text Only | Print | Product List | Glossary Off
Versions: 1 2 3 4 5 6 7 8 9 10 11 12 13 14 15 16 17 18 19 20 21 22 23 24 25 26 27 28 29 30 31 32 33 34 35 36 37 38 39 40 41 42 43 44 45 46 47 48 49 50

000
ASUS43 KOAX 012310
RWRNE

WEATHER ROUNDUP FOR NEBRASKA
NATIONAL WEATHER SERVICE OMAHA NE
500 PM CST SUN FEB 01 2015

NOTES: SATELLITE DATA IS BEING USED TO AUGMENT CLOUD COVER ABOVE
       12000 FEET.
       "FAIR" INDICATES FEW OR NO CLOUDS BELOW 12,000 FEET WITH NO
       SIGNIFICANT WEATHER AND/OR OBSTRUCTIONS TO VISIBILITY.

  * THESE STATIONS DO NOT REPORT WEATHER SUCH AS RAIN...SNOW OR FOG.

NEZ001>004-019>022-054>056-020000-
NEBRASKA PANHANDLE

CITY           SKY/WX    TMP DP  RH WIND       PRES   REMARKS
SCOTTSBLUFF    SUNNY     17   9  70 E8        30.20F WCI   7
ALLIANCE       CLEAR     13   3  64 N3        30.21F
CHADRON        CLEAR     13   6  74 S8        30.25F WCI   2
KIMBALL        SUNNY     21   9  59 N15G23    30.13F WCI   8
SIDNEY         SUNNY     14   6  70 N9        30.21R WCI   2
$$

NEZ057>060-069>072-079>082-020000-
SOUTHWEST NEBRASKA

CITY           SKY/WX    TMP DP  RH WIND       PRES   REMARKS
NORTH PLATTE   CLEAR     10   0  63 N17G25    30.29S WCI  -8
IMPERIAL       SUNNY     13   2  61 N24       30.27R WCI  -7
LEXINGTON      CLOUDY    10   2  70 N24G31    30.29R WCI -10
MCCOOK         PTCLDY    14   3  61 N20       30.30R WCI  -3
OGALLALA       CLEAR     12   4  71 NW12      30.27F WCI  -2
$$

NEZ005>010-023>029-035>040-094-020000-
NORTH CENTRAL NEBRASKA

CITY           SKY/WX    TMP DP  RH WIND       PRES   REMARKS
VALENTINE      CLEAR      5  -2  72 NW14      30.31F WCI -12
AINSWORTH      CLEAR      4  -3  73 NW15      30.30S WCI -15
BROKEN BOW     CLEAR      6  -2  69 NW22      30.27R WCI -15
O`NEILL        CLEAR      4  -2  78 NW22      30.31R WCI -18
ORD            MOCLDY     5  -3  69 NW20G30   30.30R WCI -15
THEDFORD       CLEAR      7   1  73 NW13      30.28S WCI  -9
$$

NEZ041-046>049-061>064-073>077-083>087-020000-
SOUTH CENTRAL NEBRASKA

CITY           SKY/WX    TMP DP  RH WIND       PRES   REMARKS
GRAND ISLAND   LGT SNOW   6   0  76 NW26G39   30.27R VSB 1   WCI -16
AURORA         CLOUDY     7   2  81 N29       30.26R WCI -16
HASTINGS       LGT SNOW   8   3  80 N21G31    30.25R VSB 1   WCI -12
HEBRON         CLOUDY     9   4  79 NW10G18   30.26R HAZE    WCI  -5
HOLDREGE       CLOUDY    10   2  71 N23G31    30.27R WCI -10
KEARNEY *      CLOUDY     9   1  72 NW22G28   30.27R WCI -11
YORK           LGT SNOW   7   3  85 N17G25    30.25R WCI -12
$$

NEZ011>018-030>034-042>045-020000-
NORTHEAST NEBRASKA

CITY           SKY/WX    TMP DP  RH WIND       PRES   REMARKS
NORFOLK        LGT SNOW   5   0  79 N21G29    30.26R WCI -16
ALBION           N/A      6  -1  72 N22G35    30.27R HAZE    WCI -15
BLAIR          LGT SNOW  12   7  80 NW21G32   30.17R WCI  -6
FREMONT        LGT SNOW  10   6  84 NW20G25   30.24R WCI  -9
TEKAMAH        LGT SNOW  12   7  80 N28G36    30.23R WCI  -9
WAYNE          CLOUDY     5   0  78 N22G30    30.28R HAZE    WCI -16
$$

NEZ050>053-065>068-078-088>093-020000-
SOUTHEAST NEBRASKA

CITY           SKY/WX    TMP DP  RH WIND       PRES   REMARKS
LINCOLN        LGT SNOW   9   3  77 N25G35    30.24R WCI -12
OMAHA EPPLEY   BLWGSNOW  13   8  81 N26G38    30.18R VSB 1/4 WCI  -7
BEATRICE       LGT SNOW   8   4  82 N20       30.22R WCI -11
FALLS CITY     LGT SNOW  14   9  80 NW24G35   30.12R WCI  -5
NEBRASKA CITY  LGT SNOW  13   8  82 N20G25    30.14R WCI  -5
PLATTSMOUTH    LGT SNOW  13   8  81 NW22G31   30.15R WCI  -6
$$

NEZ044-045-051>053-067-020000-
OMAHA AREA

CITY           SKY/WX    TMP DP  RH WIND       PRES   REMARKS
OMAHA EPPLEY   BLWGSNOW  13   8  81 N26G38    30.18R VSB 1/4 WCI  -7
BLAIR          LGT SNOW  12   7  80 NW21G32   30.17R WCI  -6
FREMONT        LGT SNOW  10   6  84 NW20G25   30.24R WCI  -9
MILLARD        LGT SNOW  13   8  80 NW7       30.20R VSB 1   WCI   2
OFFUTT AFB     LGT SNOW  13   8  78 NW16G25   30.17R WCI  -3
PLATTSMOUTH    LGT SNOW  13   8  81 NW22G31   30.15R WCI  -6
WAHOO          LGT SNOW   8   3  80 N32       30.22R VSB 1   WCI -16
$$



USA.gov is the U.S. government's official web portal to all federal, state and local government web resources and services.